Regional Weather Roundup
Issued by NWS Northern Indiana

Home | Current Version | Previous Version | Graphics & Text | Print | Product List | Glossary On
Versions: 1 2 3 4 5 6 7 8 9 10 11 12 13 14 15 16 17 18 19 20 21 22 23 24 25 26 27 28 29 30 31 32 33 34 35 36 37 38 39 40 41 42 43 44 45 46 47 48 49 50
000
ASUS43 KIWX 170800
RWRIWX

KIWX WEATHER ROUNDUP
NATIONAL WEATHER SERVICE NORTHERN INDIANA
300 AM EST SUN DEC 17 2017

NOTE: "FAIR" INDICATES FEW OR NO CLOUDS BELOW 12,000 FEET WITH NO
SIGNIFICANT WEATHER AND/OR OBSTRUCTIONS TO VISIBILITY.

* THESE STATIONS ARE NOT UNDER NWS QUALITY CONTROL. THEY ALSO MAY NOT
  REPORT WEATHER SUCH AS PRECIPITATION OR FOG.

INZ001>027-170900-
NORTHERN INDIANA

CITY           SKY/WX    TMP DP  RH WIND       PRES   REMARKS
SOUTH BEND     CLOUDY    26  25  96 CALM      30.08R
GOSHEN         PTCLDY    29  25  85 E5        30.08R WCI  24
MONTICELLO*    PTCLDY    35  27  73 S5        30.08R WCI  31
FORT WAYNE     CLOUDY    27  24  89 E3        30.11R
PERU/GRISSOM   CLOUDY    33  28  81 S5        30.08R WCI  29

$$
INZ028>050-170900-
CENTRAL INDIANA

CITY           SKY/WX    TMP DP  RH WIND       PRES   REMARKS
LAFAYETTE      CLOUDY    36  29  75 CALM      30.08S
KOKOMO*        PTCLDY    35  28  75 S7        30.10R WCI  29
MUNCIE*        CLOUDY    38  27  64 SW8       30.10R
INDIANAPOLIS   CLOUDY    37  29  72 S8        30.12R

$$
MIZ043>046-050>051-056>058-064>065-071>073-077>080-170900-
SOUTHWEST LOWER MICHIGAN

CITY           SKY/WX    TMP DP  RH WIND       PRES   REMARKS
BATTLE CREEK   CLOUDY    23  21  92 E6        30.11R FOG     WCI  16
BENTON HARBOR  CLOUDY    28  23  81 E8        30.09R WCI  20
COLDWATER*     CLOUDY    26  26  99 SE8       30.11R FOG     WCI  17
HILLSDALE*     FOG       27  25  93 SE7       30.11R VSB 3/4 WCI  19
HOLLAND        CLEAR     23  18  81 E9        30.13R WCI  13
GRAND RAPIDS   CLOUDY    21  19  92 E14       30.13F WCI   8
KALAMAZOO      CLOUDY    24  21  88 E5        30.11R FOG     WCI  18
STURGIS*       CLOUDY    26  24  93 E7        30.09R FOG     WCI  18
THREE RIVERS*  FAIR      26  23  89 E5        30.11R FOG     WCI  20

$$
OHZ001>008-015>018-024>025-170900-
NORTHWEST OHIO

CITY           SKY/WX    TMP DP  RH WIND       PRES   REMARKS
DEFIANCE       FOG       29  27  92 NE8       30.13R VSB 1/4 WCI  21
FINDLAY        CLOUDY    27  23  85 E5        30.11S FOG     WCI  22
TOLEDO EXPRESS CLOUDY    30  29  96 E5        30.15R WCI  25
TOLEDO METCALF CLOUDY    30  27  88 NE6       30.16R WCI  24
LIMA           CLOUDY    33  27  78 S7        30.10F WCI  27

$$
AND FOR LAKE MICHIGAN COASTAL AND OPEN LAKE BUOY OBSERVATIONS

STATION/POSITION TEMP    WIND        PRES    VSBY  WAVE
                 AIR SEA DIR/SP/G                  HT/PER
                 (F)     (DEG/KT/KT) (MB)    (MI)  (FT/S)
CALUMET HARBOR    35     340/  4/  4 1016.8F
MICHIGAN CITY     35      60/  2/  3   N/A
BURNS HARBOR      36      CALM  /  2 1018.3S
SAINT JOSEPH      29     100/  5/  8 1018.6

$$
&&




USA.gov is the U.S. government's official web portal to all federal, state and local government web resources and services.